Location: Milton
(43.5183°N, 79.8775°W)
Time: 10:10:32
(UTC+00:00)

Gurwin Techsat 1B - Pass Details

Date: 19 April 2024
Orbit: 811 x 812 km, 98.9° (Epoch: 29 May)

Event Time Altitude Azimuth Distance (km) Brightness Sun altitude
Rises 09:05:32 0° 13° (NNE) 3,346 12.5 -14.7°
Reaches altitude 10° 09:07:53 10° 12° (NNE) 2,410 11.7 -14.3°
Maximum altitude 09:13:13 80° 286° (WNW) 830 8.6 -13.5°
Drops below altitude 10° 09:18:31 10° 200° (SSW) 2,393 10.6 -12.7°
Enters shadow 09:18:46 - 200° (SSW) 2,490 10.7 -12.6°
